When you browse on this site, cookies collect data to enhance your experience and personalize the content and advertising you see.
Visit our Privacy Policy to learn more. By continuing to use the site, you agree to this use of cookies and data.
  • In Austria
  • List of Countries
  • For 7 days
  • Water Temperature
  • Weather Map
  • News
  • Weather Widgets
  • user-avatar
    Login

    Hourly Weather Jacala

    Today, 15 November, Friday

    Time Temperature Precipitation Wind Pressure Humidity
    00:00 +12°C° 0.1 mm 1 mps 634 mmHg 96%
    01:00 +12°C° 0.1 mm 1 mps 634 mmHg 96%
    02:00 +11°C° 0.1 mm 1 mps 634 mmHg 96%
    03:00 +11°C° 0 mm 1 mps 634 mmHg 96%
    04:00 +10°C° 0 mm 1 mps 634 mmHg 96%
    05:00 +9°C° 0 mm 1 mps 634 mmHg 96%
    06:00 +9°C° 0 mm 1 mps 634 mmHg 94%
    07:00 +9°C° 0 mm 1 mps 635 mmHg 93%
    08:00 +9°C° 0 mm 1 mps 635 mmHg 92%
    09:00 +10°C° 0 mm 1 mps 635 mmHg 89%
    10:00 +10°C° 0 mm 1 mps 635 mmHg 86%
    11:00 +11°C° 0 mm 1 mps 635 mmHg 83%
    12:00 +11°C° 0 mm 1 mps 635 mmHg 82%
    13:00 +11°C° 0 mm 1 mps 634 mmHg 81%
    14:00 +12°C° 0 mm 1 mps 633 mmHg 80%
    15:00 +11°C° 0 mm 1 mps 633 mmHg 82%
    16:00 +11°C° 0 mm 1 mps 634 mmHg 84%
    17:00 +10°C° 0 mm 1 mps 634 mmHg 86%
    18:00 +10°C° 0 mm 1 mps 634 mmHg 87%
    19:00 +9°C° 0 mm 0 mps 634 mmHg 87%
    20:00 +9°C° 0 mm 0 mps 635 mmHg 88%
    21:00 +8°C° 0 mm 0 mps 634 mmHg 89%
    22:00 +8°C° 0 mm 0 mps 634 mmHg 91%
    23:00 +8°C° 0 mm 0 mps 634 mmHg 92%

    Tomorrow, 16 November, Saturday

    Time Temperature Precipitation Wind Pressure Humidity
    00:00 +8°C° 0 mm 0 mps 633 mmHg 92%
    01:00 +7°C° 0 mm 0 mps 633 mmHg 92%
    02:00 +7°C° 0 mm 0 mps 632 mmHg 92%
    03:00 +7°C° 0 mm 0 mps 632 mmHg 92%
    04:00 +7°C° 0 mm 0 mps 632 mmHg 92%
    05:00 +7°C° 0 mm 0 mps 632 mmHg 92%
    06:00 +9°C° 0 mm 0 mps 633 mmHg 86%
    07:00 +11°C° 0 mm 0 mps 634 mmHg 80%
    08:00 +13°C° 0 mm 0 mps 635 mmHg 73%
    09:00 +15°C° 0 mm 1 mps 635 mmHg 70%
    10:00 +16°C° 0 mm 1 mps 635 mmHg 66%
    11:00 +18°C° 0 mm 1 mps 634 mmHg 63%
    12:00 +17°C° 0 mm 2 mps 634 mmHg 64%
    13:00 +17°C° 0 mm 2 mps 633 mmHg 66%
    14:00 +17°C° 0 mm 2 mps 632 mmHg 67%
    15:00 +16°C° 0 mm 2 mps 632 mmHg 75%
    16:00 +14°C° 0 mm 1 mps 631 mmHg 83%
    17:00 +12°C° 0 mm 1 mps 631 mmHg 91%
    18:00 +12°C° 0 mm 1 mps 631 mmHg 93%
    19:00 +11°C° 0 mm 0 mps 632 mmHg 95%
    20:00 +11°C° 0 mm 0 mps 632 mmHg 96%
    21:00 +10°C° 0 mm 0 mps 632 mmHg 96%
    22:00 +10°C° 0 mm 0 mps 632 mmHg 96%
    23:00 +10°C° 0 mm 0 mps 631 mmHg 96%

    Day after tomorrow, 17 November, Sunday

    Time Temperature Precipitation Wind Pressure Humidity
    00:00 +10°C° 0 mm 0 mps 631 mmHg 96%
    01:00 +10°C° 0 mm 0 mps 630 mmHg 95%
    02:00 +10°C° 0 mm 0 mps 630 mmHg 94%
    03:00 +10°C° 0 mm 0 mps 630 mmHg 93%
    04:00 +10°C° 0 mm 0 mps 630 mmHg 92%
    05:00 +10°C° 0 mm 0 mps 630 mmHg 91%
    06:00 +12°C° 0 mm 0 mps 631 mmHg 85%
    07:00 +14°C° 0 mm 0 mps 632 mmHg 78%
    08:00 +16°C° 0 mm 0 mps 633 mmHg 71%
    09:00 +19°C° 0 mm 1 mps 633 mmHg 66%
    10:00 +21°C° 0 mm 1 mps 633 mmHg 61%
    11:00 +23°C° 0 mm 1 mps 633 mmHg 56%
    12:00 +21°C° 0 mm 2 mps 633 mmHg 59%
    13:00 +21°C° 0 mm 2 mps 632 mmHg 62%
    14:00 +21°C° 0 mm 2 mps 631 mmHg 65%
    15:00 +19°C° 0.1 mm 2 mps 631 mmHg 74%
    16:00 +18°C° 0.1 mm 1 mps 631 mmHg 84%
    17:00 +15°C° 0.1 mm 1 mps 630 mmHg 93%
    18:00 +15°C° 0 mm 1 mps 631 mmHg 94%
    19:00 +14°C° 0 mm 0 mps 631 mmHg 94%
    20:00 +14°C° 0 mm 0 mps 632 mmHg 94%
    21:00 +14°C° 0 mm 0 mps 631 mmHg 93%
    22:00 +14°C° 0 mm 0 mps 631 mmHg 92%
    23:00 +14°C° 0 mm 0 mps 631 mmHg 91%

    18 November, Monday

    Time Temperature Precipitation Wind Pressure Humidity
    00:00 +14°C° 0 mm 0 mps 631 mmHg 88%
    01:00 +14°C° 0 mm 0 mps 631 mmHg 86%
    02:00 +14°C° 0 mm 0 mps 631 mmHg 83%
    03:00 +14°C° 0 mm 0 mps 631 mmHg 83%
    04:00 +14°C° 0 mm 0 mps 631 mmHg 82%
    05:00 +14°C° 0 mm 0 mps 631 mmHg 81%
    06:00 +15°C° 0 mm 0 mps 632 mmHg 78%
    07:00 +16°C° 0 mm 0 mps 632 mmHg 74%
    08:00 +18°C° 0 mm 0 mps 633 mmHg 70%
    09:00 +21°C° 0 mm 1 mps 633 mmHg 66%
    10:00 +22°C° 0 mm 1 mps 633 mmHg 63%
    11:00 +23°C° 0 mm 2 mps 633 mmHg 59%
    12:00 +23°C° 0.1 mm 2 mps 632 mmHg 64%
    13:00 +21°C° 0.1 mm 2 mps 631 mmHg 69%
    14:00 +20°C° 0.1 mm 2 mps 630 mmHg 73%
    15:00 +19°C° 0.1 mm 2 mps 630 mmHg 80%
    16:00 +18°C° 0.1 mm 2 mps 630 mmHg 87%
    17:00 +16°C° 0.1 mm 1 mps 630 mmHg 95%
    18:00 +16°C° 0 mm 1 mps 630 mmHg 95%
    19:00 +16°C° 0 mm 1 mps 631 mmHg 95%
    20:00 +14°C° 0 mm 0 mps 631 mmHg 95%
    21:00 +14°C° 0 mm 0 mps 631 mmHg 95%
    22:00 +14°C° 0 mm 0 mps 631 mmHg 95%
    23:00 +14°C° 0 mm 0 mps 631 mmHg 95%

    19 November, Tuesday

    Time Temperature Precipitation Wind Pressure Humidity
    00:00 +14°C° 0 mm 0 mps 631 mmHg 95%
    01:00 +14°C° 0 mm 0 mps 630 mmHg 95%
    02:00 +13°C° 0 mm 0 mps 630 mmHg 95%
    03:00 +13°C° 0 mm 0 mps 630 mmHg 96%
    04:00 +13°C° 0 mm 0 mps 631 mmHg 96%
    05:00 +13°C° 0 mm 0 mps 631 mmHg 96%
    06:00 +14°C° 0 mm 0 mps 631 mmHg 94%
    07:00 +14°C° 0 mm 0 mps 632 mmHg 92%
    08:00 +15°C° 0 mm 0 mps 632 mmHg 89%
    09:00 +16°C° 0 mm 1 mps 632 mmHg 87%
    10:00 +18°C° 0 mm 1 mps 632 mmHg 84%
    11:00 +18°C° 0 mm 1 mps 632 mmHg 82%
    12:00 +19°C° 0 mm 1 mps 631 mmHg 79%
    13:00 +20°C° 0 mm 1 mps 631 mmHg 77%
    14:00 +20°C° 0 mm 1 mps 631 mmHg 74%
    15:00 +19°C° 0 mm 1 mps 631 mmHg 79%
    16:00 +18°C° 0 mm 1 mps 631 mmHg 84%
    17:00 +18°C° 0 mm 1 mps 631 mmHg 89%
    18:00 +16°C° 0.1 mm 1 mps 631 mmHg 91%
    19:00 +16°C° 0.1 mm 1 mps 632 mmHg 93%
    20:00 +15°C° 0.1 mm 0 mps 632 mmHg 95%
    21:00 +14°C° 0 mm 0 mps 632 mmHg 95%
    22:00 +14°C° 0 mm 0 mps 631 mmHg 96%
    23:00 +14°C° 0 mm 0 mps 631 mmHg 96%

    20 November, Wednesday

    Time Temperature Precipitation Wind Pressure Humidity
    00:00 +13°C° 0 mm 0 mps 631 mmHg 96%
    01:00 +13°C° 0 mm 0 mps 631 mmHg 96%
    02:00 +13°C° 0 mm 0 mps 630 mmHg 96%
    03:00 +13°C° 0 mm 0 mps 630 mmHg 95%
    04:00 +13°C° 0 mm 0 mps 630 mmHg 94%
    05:00 +13°C° 0 mm 0 mps 630 mmHg 93%
    06:00 +14°C° 0 mm 0 mps 631 mmHg 87%
    07:00 +16°C° 0 mm 0 mps 632 mmHg 81%
    08:00 +18°C° 0 mm 0 mps 633 mmHg 75%
    09:00 +19°C° 0 mm 0 mps 633 mmHg 69%
    10:00 +23°C° 0 mm 1 mps 633 mmHg 62%
    11:00 +25°C° 0 mm 1 mps 633 mmHg 56%
    12:00 +25°C° 0 mm 1 mps 632 mmHg 58%
    13:00 +25°C° 0 mm 2 mps 632 mmHg 59%
    14:00 +25°C° 0 mm 2 mps 631 mmHg 61%
    15:00 +23°C° 0 mm 1 mps 631 mmHg 72%
    16:00 +21°C° 0 mm 1 mps 630 mmHg 84%
    17:00 +19°C° 0 mm 1 mps 630 mmHg 95%
    18:00 +18°C° 0 mm 1 mps 630 mmHg 96%
    19:00 +16°C° 0 mm 0 mps 631 mmHg 96%
    20:00 +16°C° 0 mm 0 mps 631 mmHg 96%
    21:00 +16°C° 0 mm 0 mps 631 mmHg 96%
    22:00 +15°C° 0 mm 0 mps 631 mmHg 95%
    23:00 +15°C° 0 mm 0 mps 631 mmHg 94%
    Show more